#timestamp,LO_Frequency,Hit,StdDev 
1551279615.7,286046999.4,N
1551279635.5,286046996.5,N
1551279655.4,286046996.9,N
1551279675.2,286046996.6,N
1551279695.0,286046996.6,N
1551279695.9,286046996.6,N
1551279715.8,286046996.9,N
1551279735.6,286046998.7,N
1551279755.4,286046996.6,N
1551279775.3,286046998.8,N
1551279795.1,286046998.1,N
1551279815.9,286046998.5,N
1551279835.7,286047001.2,N
1551279855.5,286046998.9,N
1551279875.4,286046998.0,N
1551279895.2,286046995.5,N
1551279915.1,286046995.5,N
1551279916.0,286046995.5,N
1551279935.7,286046997.8,N
1551279955.5,286046995.8,N
1551279975.4,286046995.9,N
1551279995.2,286046995.1,N
1551280015.0,286046995.5,N
1551280016.0,286046995.5,N
1551280035.8,286046993.4,Y
1551280055.6,286046995.1,P
1551280075.5,286046997.3,N
1551280095.3,286046997.4,N
1551280115.1,286046999.5,N
1551280135.9,286046996.7,N
1551280155.7,286046997.6,N
1551280175.6,286046996.8,N
1551280195.4,286046997.9,N
1551280215.2,286046994.9,Y
1551280235.1,286046998.1,P
1551280255.9,286047000.7,N
1551280275.7,286047000.0,N
1551280295.5,286047000.2,N
1551280315.4,286047000.0,N
1551280335.2,286047000.2,N
1551280355.1,286047000.3,N
1551280356.0,286047000.3,N
1551280375.8,286047000.2,N
1551280395.6,286046998.3,N
1551280415.5,286047000.7,N
1551280435.3,286047001.0,N
1551280455.1,286047000.7,N
1551280475.9,286046999.8,N
1551280495.7,286047000.4,N
1551280515.6,286046998.4,N
1551280535.4,286046996.9,N
1551280555.2,286046996.5,N
1551280575.1,286046999.5,N
1551280576.0,286046999.5,N
1551280595.8,286046999.0,N
1551280615.6,286047001.0,N
1551280635.5,286047000.5,N
1551280655.3,286047000.4,N
1551280675.2,286047000.0,N
1551280695.9,286047000.1,N
1551280715.7,286047002.8,N
1551280735.6,286047000.6,N
1551280755.4,286047000.2,N
1551280775.3,286047004.4,Y
1551280795.1,286047003.4,P
1551280815.8,286047003.0,N
1551280835.7,286047005.4,P
1551280855.5,286047005.7,N
1551280875.4,286047005.2,N
1551280895.2,286047005.3,N
1551280915.0,286047003.2,N
1551280915.9,286047003.2,N
1551280935.8,286047005.9,Y
1551280955.6,286047002.1,P
1551280975.5,286047001.4,N
1551280995.3,286047001.8,N
1551281015.1,286047001.6,N
1551281035.9,286047002.7,Y
1551281055.7,286046998.4,P
1551281075.5,286046998.4,N
1551281095.4,286046999.9,N
1551281115.2,286047001.2,N
1551281135.1,286046998.9,N
1551281136.0,286046998.9,N
1551281155.8,286046998.8,N
1551281175.6,286046996.5,N
1551281195.5,286047001.2,N
1551281215.3,286047000.2,N
1551281235.2,286047000.4,N
1551281255.9,286047000.7,N
1551281275.7,286046999.9,N
1551281295.6,286047002.4,N
1551281315.4,286047002.1,N
1551281335.2,286047002.1,N
1551281355.1,286047000.1,N
1551281356.0,286047000.1,N
1551281375.8,286047001.9,N
1551281395.7,286047001.9,N
1551281415.5,286047001.7,N
1551281435.3,286047004.3,N
1551281455.2,286047001.4,N
1551281475.0,286047004.2,N
1551281475.9,286047004.2,N
1551281495.8,286047001.7,N
1551281515.6,286047002.1,N
1551281535.4,286047003.7,N
1551281555.3,286047004.0,N
1551281575.1,286047004.0,N
1551281595.8,286047004.0,N
1551281615.7,286047001.3,N
1551281635.5,286047001.7,N
1551281685.4,286047001.3,E
1551281695.3,286047001.6,N
1551281715.1,286047000.1,P
1551281735.9,286047002.3,P
1551281755.7,286046999.7,N
1551281775.6,286047000.3,N
1551281795.4,286046998.1,N
1551281815.2,286046998.7,N
1551281835.1,286046998.5,N
1551281836.0,286046998.5,N
1551281855.8,286046998.2,N
1551281875.6,286047001.2,N
1551281895.5,286046996.5,N
1551281915.3,286046998.3,N
1551281935.2,286046999.6,N
1551281955.9,286047001.2,N
1551281975.7,286047000.0,N
1551281995.6,286047000.0,N
1551282015.4,286047000.6,N
1551282035.3,286047000.9,N
1551282055.1,286047000.9,N
1551282056.0,286047000.9,N
1551282075.8,286047000.4,N
1551282095.7,286047002.3,N
1551282115.5,286047004.2,N
1551282135.3,286047004.1,N
1551282155.2,286047004.0,N
1551282175.0,286047003.0,N
1551282175.9,286047003.0,N
1551282195.8,286047003.3,N
1551282215.6,286047003.4,N
1551282235.4,286047005.6,N
1551282255.3,286047005.4,N
1551282275.1,286047004.6,N
1551282295.9,286047007.5,Y
1551282315.7,286047005.9,P
1551282335.5,286047003.3,N
1551282355.4,286047005.5,N
1551282375.2,286047001.8,N
1551282395.1,286047001.3,N
1551282396.0,286047001.3,N
1551282415.8,286047004.3,N
1551282435.6,286047003.9,N
1551282455.5,286047004.1,N
1551282475.3,286047001.4,N
1551282495.2,286047001.3,N
1551282515.9,286047003.9,N
1551282535.7,286047004.2,N
1551282555.6,286047003.2,N
1551282575.4,286047004.1,N
1551282595.2,286047001.7,N
1551282615.1,286047004.2,N
1551282616.0,286047004.2,N
1551282635.8,286047003.7,N
1551282655.7,286047003.9,N
1551282675.5,286047004.3,Y
1551282695.3,286046999.3,P
1551282715.2,286046998.5,N
1551282735.0,286047001.2,N
1551282735.9,286047001.2,N
1551282755.8,286047000.5,N
1551282775.6,286047000.2,N
1551282795.4,286047000.0,N
1551282815.3,286047001.0,N
1551282835.1,286047000.7,N
1551282855.8,286046998.7,N
1551282875.7,286046998.7,N
1551282895.5,286046999.1,N
1551282915.4,286046999.6,N
1551282935.2,286046999.4,N
1551282955.0,286046996.6,N
1551282955.9,286046996.6,N
1551282975.8,286046996.9,N
1551282995.6,286046999.5,N
1551283015.4,286046997.1,N
1551283035.3,286046996.9,N
1551283055.1,286046995.3,N
1551283075.9,286046999.6,N
1551283095.7,286047000.8,N
1551283115.5,286047000.7,N
1551283135.4,286047000.0,N
1551283155.2,286047000.2,N
1551283175.1,286047000.1,N
1551283176.0,286047000.1,N
1551283195.8,286047002.4,N
